Overview Statistics Trail Chart Weather Telemetry Raw packets
 

This is the latest recevied weather packets stored in our database for station/object N2ZVN. If no packets are shown the sender has not sent any weather packets the latest 10 day(s).

<< 82 83 84 85 86 87 88 >>
Time Temp. Humidity Pressure Rain* Wind** Luminosity Snow
1788101210 19.44° C 84% 1020.6 hPa 0 mm - 23 W/m² -
1788100906 18.89° C 88% 1020.5 hPa 0 mm - 33 W/m² -
1788100602 18.89° C 86% 1020.3 hPa 0 mm - 24 W/m² -
1788100300 18.89° C 89% 1020.3 hPa 0 mm - 28 W/m² -
1788099996 18.89° C 88% 1020.3 hPa 0 mm - 28 W/m² -
1788099696 18.89° C 89% 1020.2 hPa 0 mm - 24 W/m² -
1788099391 18.89° C 89% 1020.1 hPa 0 mm - 22 W/m² -
1788099086 18.89° C 87% 1020 hPa 0 mm - 27 W/m² -
1788098781 18.89° C 87% 1020.1 hPa 0 mm - 33 W/m² -
1788098481 19.44° C 88% 1020.2 hPa 0 mm - 34 W/m² -
1788098181 19.44° C 87% 1020.2 hPa 0 mm - 38 W/m² -
1788097876 18.89° C 85% 1020.1 hPa 0 mm - 40 W/m² -
1788097572 18.89° C 84% 1020.3 hPa 0 mm - 23 W/m² -
1788097268 18.89° C 85% 1020.3 hPa 0 mm - 24 W/m² -
1788096963 18.89° C 85% 1020.2 hPa 0 mm - 29 W/m² -
1788096658 18.89° C 83% 1020.2 hPa 0 mm - 21 W/m² -
1788096354 18.89° C 84% 1020.1 hPa 0 mm - 24 W/m² -
1788096049 18.89° C 84% 1020 hPa 0 mm - 20 W/m² -
1788095748 18.89° C 84% 1019.9 hPa 0 mm - 15 W/m² -
1788095443 18.89° C 84% 1019.8 hPa 0 mm - 22 W/m² -
1788095138 18.89° C 83% 1019.9 hPa 0 mm - 28 W/m² -
1788094834 18.89° C 81% 1020.1 hPa 0 mm - 25 W/m² -
1788094534 19.44° C 82% 1020.1 hPa 0 mm - 21 W/m² -
1788094233 19.44° C 82% 1020 hPa 0 mm - 18 W/m² -
1788093932 19.44° C 82% 1020.1 hPa 0 mm - 24 W/m² -

* Rain latest hour (hover to see other rain measurements)
** Current wind speed in m/s (hover to see current wind gust speed)